Location: *
(33.6842°N, 117.7925°W)
Time: 06:49:07
(UTC+00:00)

GP-B - Pass Details

Date: 21 October 2019
Orbit: 632 x 635 km, 89.8° (Epoch: 15 November)

Event Time Altitude Azimuth Distance (km) Brightness Sun altitude
Rises 12:44:13 0° 177° (S) 2,915 6.6 -16.6°
Reaches altitude 10° 12:46:25 10° 178° (S) 2,011 5.7 -16.1°
Maximum altitude 12:50:51 87° 268° (W) 640 3.0 -15.2°
Drops below altitude 10° 12:55:18 10° 357° (N) 2,024 5.6 -14.3°
Sets 12:57:32 0° 358° (N) 2,935 6.5 -13.8°
